[[{"header":{"parameterUnit":"m.s-1","parameterCategory":1,"la1":30.2991,"la2":30.254,"lo1":-89.0895,"lo2":-89.0444,"dy":0.0017,"dx":0.0017,"nx":28,"ny":28,"refTime":"2024-06-12T09:00:00:Z","depth":0,"parameterNumber":2,"parameterNumberName":"U-component_of_WINDS"},"data":[0,0,0,0,0,0,0,0,0,0,0,0,0,0,0,0,0,0,0,0,0,0,0,0,0,0,0,0,0,0,0,0,0,0,0,0,0,0,0,0,0,0,0,0,0,0,0,0,0,0,0,0,0,0,0,0,0,0,-2.3585,-2.3585,0,-2.3604,-2.3604,-2.3605,-2.3507,-2.3504,-2.3501,-2.3499,-2.352,-2.3523,-2.3526,0,0,0,0,0,0,0,0,0,0,0,0,0,-2.3463,-2.3466,-2.3584,-2.3585,-2.3585,-2.3604,-2.3604,-2.3605,-2.3507,-2.3504,-2.3501,-2.3497,-2.3519,-2.3523,-2.3526,0,0,0,0,0,0,0,0,0,0,0,0,0,-2.3503,-2.3467,-2.3584,-2.3539,-2.3535,-2.3604,-2.3604,-2.3605,-2.3508,-2.3504,-2.35,-2.3496,-2.3518,-2.3522,-2.3527,-2.3642,0,0,-2.3542,-2.3544,0,0,0,0,0,0,0,0,-2.35,-2.3507,-2.3545,-2.3542,-2.3538,-2.3549,-2.3569,-2.3617,-2.3509,-2.3518,-2.3498,-2.3494,-2.3533,-2.3536,-2.3549,-2.3642,-2.3643,-2.3542,-2.3545,-2.3547,-2.3548,0,0,0,0,0,0,0,-2.3498,-2.3506,-2.3592,-2.3546,-2.3541,-2.3517,-2.3518,-2.3578,-2.3549,-2.3517,-2.351,-2.3514,-2.353,-2.3545,-2.3549,-2.3644,-2.3542,-2.3546,-2.3549,-2.3551,-2.3831,-2.3836,0,0,0,0,0,0,-2.3501,-2.3504,-2.3592,-2.3593,-2.3508,-2.3523,-2.3524,-2.355,-2.3548,-2.3544,-2.3517,-2.3509,-2.3539,-2.3544,-2.3549,-2.3683,-2.3547,-2.3552,-2.3554,-2.3827,-2.3832,-2.3837,0,0,0,0,0,0,-2.3499,-2.351,-2.3591,-2.3547,-2.3555,-2.353,-2.3559,-2.3552,-2.3567,-2.3548,-2.3543,-2.3538,-2.3536,-2.3543,-2.3619,-2.3683,-2.3554,-2.3558,-2.3821,-2.3828,-2.3835,-2.3953,0,0,0,0,0,0,-2.3496,-2.351,-2.3553,-2.3548,-2.3558,-2.3661,-2.3563,-2.3556,-2.3575,-2.3565,-2.3566,-2.3562,-2.3533,-2.3613,-2.3624,-2.3687,-2.3562,-2.3816,-2.3825,-2.3833,-2.3943,-2.3963,-2.398,0,0,0,0,0,-2.3492,-2.3586,-2.3556,-2.3567,-2.3611,-2.3665,-2.367,-2.3634,-2.3581,-2.3624,-2.3612,-2.3562,-2.3674,-2.3621,-2.3633,-2.3699,-2.3811,-2.3822,-2.3832,-2.3935,-2.3959,-2.3979,0,0,0,0,0,0,-2.3599,-2.3584,-2.3551,-2.3646,-2.3657,-2.3648,-2.3702,-2.3661,-2.3687,-2.3677,-2.3631,-2.3632,-2.3716,-2.3715,-2.3657,-2.3809,-2.3733,-2.3747,-2.3808,-2.383,-2.3848,-2.3847,-2.3566,0,0,0,0,0,-2.3634,-2.3678,-2.3662,-2.3748,-2.3755,-2.3728,-2.375,-2.3721,-2.3731,-2.3735,-2.3728,-2.374,-2.3778,-2.3804,-2.3837,-2.3942,-2.3941,-2.3993,-2.4011,-2.4026,-2.4039,-2.4094,-2.4117,-2.3871,-2.3871,-2.3871,0,0,-2.3706,-2.3703,-2.3734,-2.377,-2.3775,-2.3822,-2.3733,-2.3786,-2.382,-2.3743,-2.3815,-2.3811,-2.3821,-2.3912,-2.3952,-2.3913,-2.4106,-2.4039,-2.4051,-2.4056,-2.4107,-2.413,-2.4151,-2.3878,-2.3877,-2.3876,0,0,-2.3862,-2.3864,-2.3936,-2.3943,-2.3952,-2.3932,-2.395,-2.3946,-2.3941,-2.4012,-2.3955,-2.3995,-2.406,-2.407,-2.4083,-2.4242,-2.4197,-2.4254,-2.435,-2.4404,-2.4424,-2.4441,-2.4498,-2.4519,-2.4266,-2.4266,-2.4266,0,-2.3951,-2.402,-2.3978,-2.4035,-2.4053,-2.3984,-2.4056,-2.4064,-2.4084,-2.4098,-2.4054,-2.4135,-2.4137,-2.4229,-2.4268,-2.4281,-2.4299,-2.4254,-2.4424,-2.4441,-2.4456,-2.451,-2.4531,-2.4273,-2.4272,-2.4271,-2.4271,0,-2.4129,-2.4177,-2.4234,-2.4254,-2.4277,-2.4342,-2.431,-2.4339,-2.4307,-2.4293,-2.4366,-2.4366,-2.4398,-2.4417,-2.4387,-2.4506,-2.4481,-2.4432,-2.4355,-2.4487,-2.4537,-2.4557,-2.4283,-2.428,-2.4278,-2.4277,0,0,-2.4355,-2.435,-2.4372,-2.438,-2.4384,-2.4421,-2.4482,-2.4513,-2.4538,-2.4554,-2.4604,-2.4661,-2.4615,-2.463,-2.46,-2.4648,-2.4774,-2.4592,-2.4591,-2.4627,-2.4904,-2.4943,-2.4967,-2.4743,-2.4747,-2.475,-2.4904,0,-2.4508,-2.4612,-2.4576,-2.4683,-2.4727,-2.4661,-2.4714,-2.4723,-2.4711,-2.4746,-2.4732,-2.4773,-2.4709,-2.4718,-2.4762,-2.4749,-2.4829,-2.4738,-2.4791,-2.4793,-2.4791,-2.4993,-2.5034,-2.5179,-2.4923,-2.4926,-2.4928,0,-2.4701,-2.4724,-2.4835,-2.4831,-2.4848,-2.4897,-2.4922,-2.4957,-2.4964,-2.4952,-2.4969,-2.4929,-2.4988,-2.491,-2.4992,-2.493,-2.4949,-2.4947,-2.4951,-2.4956,-2.487,-2.5004,-2.5224,-2.5247,-2.4959,-2.4956,-2.4954,0,-2.4856,-2.4914,-2.4988,-2.4997,-2.4994,-2.503,-2.503,-2.5034,-2.5055,-2.5076,-2.5089,-2.5118,-2.5134,-2.5157,-2.5126,-2.5072,-2.5212,-2.5132,-2.5204,-2.5205,-2.5238,-2.5237,-2.5465,-2.5249,-2.5249,-2.5248,-2.5248,0,-2.5032,-2.5103,-2.5058,-2.5103,-2.518,-2.5137,-2.5215,-2.5208,-2.5211,-2.5254,-2.5199,-2.5241,-2.5196,-2.5234,-2.5209,-2.5281,-2.5288,-2.528,-2.5273,-2.5286,-2.5287,-2.5299,-2.5288,-2.5254,-2.5253,-2.5251,-2.525,0,-2.5219,-2.5191,-2.5267,-2.5258,-2.5257,-2.5314,-2.5306,-2.5348,-2.5331,-2.5386,-2.5397,-2.5371,-2.5412,-2.5382,-2.5423,-2.5407,-2.5501,-2.5479,-2.5499,-2.5493,-2.5568,-2.5561,-2.5813,-2.5844,-2.5607,-2.5609,-2.5611,0,-2.5333,-2.5386,-2.5382,-2.5407,-2.5411,-2.5451,-2.5472,-2.5431,-2.5455,-2.5467,-2.5508,-2.5544,-2.5571,-2.5639,-2.5624,-2.5655,-2.5634,-2.572,-2.5639,-2.565,-2.5637,-2.5634,-2.564,-2.5737,-2.574,-2.5742,-2.5744,0,-2.554,-2.5523,-2.5555,-2.5583,-2.5609,-2.5628,-2.5643,-2.5667,-2.5625,-2.5655,-2.5696,-2.5717,-2.5758,-2.5795,-2.582,-2.582,-2.5776,-2.577,-2.5788,-2.5803,-2.5812,-2.5809,-2.5545,-2.5765,-2.5762,-2.5761,-2.576,-2.5759,-2.5695,-2.5738,-2.5742,-2.5779,-2.5786,-2.5801,-2.584,-2.5827,-2.5861,-2.5891,-2.5865,-2.5915,-2.592,-2.5949,-2.5955,-2.5993,-2.5957,-2.5984,-2.5991,-2.5999,-2.601,-2.5805,-2.5997,-2.5996,-2.5996,-2.5995,-2.5995,0,-2.5899,-2.5898,-2.5932,-2.5955,-2.5984,-2.5939,-2.5953,-2.598,-2.6024,-2.6033,-2.606,-2.6108,-2.6143,-2.613,-2.6161,-2.6194,-2.6174,-2.6203,-2.6201,-2.6202,-2.6039,-2.602,-2.6219,-2.6219,-2.6219,-2.6218,-2.6218,-2.6218,-2.6009,-2.6081,-2.6065,-2.6139,-2.6137,-2.6185,-2.6197,-2.621,-2.6217,-2.6272,-2.6301,-2.6292,-2.6292,-2.6322,-2.6352,-2.6347,-2.6362,-2.6399,-2.6387,-2.6235,-2.6213,-2.6192,-2.6175,-2.6402,-2.6402,-2.6546,-2.6548,-2.6549]},{"header":{"parameterUnit":"m.s-1","parameterCategory":1,"la1":30.2991,"la2":30.254,"lo1":-89.0895,"lo2":-89.0444,"dy":0.0017,"dx":0.0017,"nx":28,"ny":28,"refTime":"2024-06-12T09:00:00:Z","depth":0,"parameterNumber":3,"parameterNumberName":"V-component_of_WINDS"},"data":[0,0,0,0,0,0,0,0,0,0,0,0,0,0,0,0,0,0,0,0,0,0,0,0,0,0,0,0,0,0,0,0,0,0,0,0,0,0,0,0,0,0,0,0,0,0,0,0,0,0,0,0,0,0,0,0,0,0,-4.1116,-4.1117,0,-4.1175,-4.1176,-4.1176,-4.1135,-4.1133,-4.1131,-4.1129,-4.1185,-4.1188,-4.1191,0,0,0,0,0,0,0,0,0,0,0,0,0,-4.0963,-4.0966,-4.1116,-4.1117,-4.1118,-4.1175,-4.1176,-4.1176,-4.1135,-4.1133,-4.113,-4.1128,-4.1184,-4.1187,-4.1191,0,0,0,0,0,0,0,0,0,0,0,0,0,-4.1026,-4.0967,-4.1116,-4.1104,-4.1103,-4.1175,-4.1176,-4.1177,-4.1135,-4.1133,-4.113,-4.1127,-4.1182,-4.1187,-4.1192,-4.1277,0,0,-4.1206,-4.1209,0,0,0,0,0,0,0,0,-4.1022,-4.1032,-4.1105,-4.1105,-4.1104,-4.1145,-4.1142,-4.121,-4.1136,-4.1123,-4.1129,-4.1126,-4.1173,-4.1179,-4.1196,-4.1279,-4.1282,-4.1207,-4.121,-4.1212,-4.1213,0,0,0,0,0,0,0,-4.1018,-4.1029,-4.1139,-4.1106,-4.1106,-4.1094,-4.11,-4.1155,-4.1163,-4.1124,-4.1121,-4.1129,-4.1173,-4.1191,-4.1197,-4.1283,-4.1207,-4.1211,-4.1214,-4.1216,-4.1437,-4.144,0,0,0,0,0,0,-4.1016,-4.1026,-4.1137,-4.1141,-4.1056,-4.1099,-4.1105,-4.1134,-4.1162,-4.1164,-4.1131,-4.1127,-4.1184,-4.1191,-4.1198,-4.1298,-4.1212,-4.1216,-4.1219,-4.1434,-4.1438,-4.1441,0,0,0,0,0,0,-4.1012,-4.1026,-4.1135,-4.1083,-4.1095,-4.1104,-4.1137,-4.1137,-4.1156,-4.1168,-4.1168,-4.1149,-4.1182,-4.1192,-4.1257,-4.13,-4.1218,-4.1223,-4.143,-4.1435,-4.1439,-4.15,0,0,0,0,0,0,-4.1008,-4.1025,-4.1059,-4.1084,-4.1099,-4.1195,-4.114,-4.114,-4.1164,-4.1159,-4.1184,-4.1186,-4.1181,-4.1251,-4.1262,-4.1305,-4.1227,-4.1427,-4.1433,-4.1438,-4.1494,-4.1506,-4.1516,0,0,0,0,0,-4.1003,-4.1073,-4.1061,-4.1074,-4.1141,-4.1197,-4.1206,-4.12,-4.1168,-4.1201,-4.1209,-4.1185,-4.1294,-4.1258,-4.1271,-4.1315,-4.1424,-4.1431,-4.1437,-4.1489,-4.1504,-4.1516,0,0,0,0,0,0,-4.1051,-4.1076,-4.1063,-4.1143,-4.1169,-4.119,-4.1232,-4.1215,-4.1249,-4.1243,-4.1232,-4.1238,-4.1307,-4.1318,-4.1277,-4.1398,-4.1353,-4.1363,-4.1389,-4.1402,-4.1413,-4.1408,-4.1231,0,0,0,0,0,-4.1071,-4.1117,-4.1135,-4.1204,-4.1218,-4.1223,-4.1247,-4.124,-4.1266,-4.1276,-4.1288,-4.1312,-4.1352,-4.1378,-4.1415,-4.1496,-4.15,-4.1533,-4.1544,-4.1553,-4.1561,-4.1603,-4.1617,-4.1463,-4.1463,-4.1463,0,0,-4.1113,-4.1132,-4.1161,-4.1214,-4.1233,-4.1279,-4.1232,-4.1282,-4.1315,-4.1283,-4.1346,-4.1356,-4.1382,-4.1456,-4.1489,-4.1467,-4.1604,-4.1561,-4.1568,-4.1571,-4.1611,-4.1626,-4.1639,-4.1468,-4.1467,-4.1466,0,0,-4.1212,-4.1232,-4.1291,-4.1311,-4.1341,-4.1344,-4.1358,-4.1382,-4.1388,-4.1452,-4.1428,-4.1466,-4.1535,-4.1554,-4.1573,-4.1679,-4.1658,-4.1691,-4.1747,-4.1789,-4.1801,-4.1811,-4.1848,-4.1861,-4.1699,-4.1699,-4.1699,0,-4.1259,-4.1329,-4.1323,-4.1375,-4.1398,-4.1373,-4.1431,-4.1451,-4.1491,-4.1506,-4.1482,-4.1566,-4.1582,-4.1659,-4.1685,-4.1702,-4.1716,-4.1687,-4.18,-4.1811,-4.182,-4.1855,-4.1869,-4.1703,-4.1703,-4.1702,-4.1702,0,-4.1385,-4.1433,-4.1477,-4.1517,-4.1546,-4.1601,-4.1602,-4.1631,-4.1622,-4.1626,-4.169,-4.1709,-4.1748,-4.1766,-4.1757,-4.1842,-4.1827,-4.1802,-4.1756,-4.1839,-4.1871,-4.1884,-4.1708,-4.1707,-4.1706,-4.1705,0,0,-4.1515,-4.1552,-4.1568,-4.1586,-4.1617,-4.1653,-4.1706,-4.1746,-4.1771,-4.1799,-4.1842,-4.19,-4.1877,-4.1898,-4.1891,-4.1927,-4.2008,-4.1897,-4.1897,-4.1916,-4.21,-4.2118,-4.2134,-4.1995,-4.1998,-4.2,-4.2098,0,-4.1614,-4.1709,-4.1705,-4.1793,-4.1836,-4.1812,-4.1858,-4.1881,-4.1887,-4.1923,-4.1929,-4.197,-4.1937,-4.1949,-4.1984,-4.1991,-4.2045,-4.1984,-4.2033,-4.2035,-4.2026,-4.2151,-4.2171,-4.2262,-4.211,-4.2112,-4.2114,0,-4.1743,-4.1777,-4.1869,-4.1893,-4.1911,-4.1953,-4.1989,-4.2025,-4.2049,-4.2051,-4.2075,-4.2062,-4.2113,-4.2068,-4.2138,-4.2097,-4.2117,-4.2123,-4.2126,-4.2129,-4.2078,-4.2156,-4.2292,-4.2305,-4.2134,-4.2132,-4.2131,0,-4.1827,-4.1896,-4.196,-4.1976,-4.2005,-4.2035,-4.2048,-4.2071,-4.2095,-4.2126,-4.2141,-4.2177,-4.2196,-4.2224,-4.222,-4.2188,-4.2291,-4.2246,-4.2292,-4.2292,-4.2314,-4.2312,-4.2453,-4.2329,-4.2329,-4.2329,-4.2328,0,-4.1938,-4.1995,-4.1998,-4.2037,-4.2099,-4.2094,-4.2155,-4.2165,-4.2185,-4.2224,-4.2206,-4.2242,-4.2236,-4.2272,-4.227,-4.2327,-4.2336,-4.2337,-4.2336,-4.2339,-4.2338,-4.235,-4.2343,-4.2332,-4.2332,-4.2331,-4.233,0,-4.2042,-4.2046,-4.2114,-4.2137,-4.2144,-4.2189,-4.2207,-4.2243,-4.2248,-4.2297,-4.2309,-4.2315,-4.2357,-4.2356,-4.2403,-4.2401,-4.2472,-4.2463,-4.2464,-4.2461,-4.2507,-4.2502,-4.266,-4.2679,-4.2544,-4.2545,-4.2547,0,-4.2112,-4.2155,-4.2183,-4.2209,-4.2224,-4.2266,-4.229,-4.2286,-4.2313,-4.2344,-4.2376,-4.2416,-4.2448,-4.2515,-4.2523,-4.2558,-4.255,-4.2602,-4.2555,-4.2556,-4.2549,-4.2546,-4.2549,-4.2611,-4.2613,-4.2614,-4.2615,0,-4.2234,-4.2234,-4.2272,-4.231,-4.234,-4.237,-4.2397,-4.2418,-4.2417,-4.2447,-4.249,-4.2515,-4.2564,-4.2603,-4.2637,-4.2649,-4.2631,-4.263,-4.2642,-4.2645,-4.2643,-4.2643,-4.2487,-4.2626,-4.2625,-4.2624,-4.2624,-4.2623,-4.2322,-4.2359,-4.2385,-4.2426,-4.2447,-4.2472,-4.2507,-4.2516,-4.2553,-4.2593,-4.2588,-4.2636,-4.2658,-4.2702,-4.2717,-4.2753,-4.2734,-4.2753,-4.2757,-4.2761,-4.2766,-4.2639,-4.2759,-4.2759,-4.2759,-4.2758,-4.2758,0,-4.2442,-4.2458,-4.2497,-4.2536,-4.2568,-4.2551,-4.258,-4.2607,-4.265,-4.2673,-4.2705,-4.2754,-4.2792,-4.2803,-4.284,-4.2866,-4.2859,-4.2876,-4.2873,-4.2875,-4.2781,-4.2766,-4.2881,-4.2881,-4.2881,-4.2881,-4.2881,-4.2881,-4.2509,-4.257,-4.2573,-4.2644,-4.2658,-4.2706,-4.2724,-4.2747,-4.2765,-4.2821,-4.2853,-4.2861,-4.2878,-4.2916,-4.2949,-4.2951,-4.2965,-4.2985,-4.2983,-4.2895,-4.2882,-4.287,-4.2856,-4.2988,-4.2988,-4.3074,-4.3075,-4.3076]}]]